OBJECT E, 59777

Orbit data source: Space-Track

You're viewing an Uncataloged Satellite

Recently launched and/or uncataloged satellites may have evolving metadata. Metadata may include but not limited to: Owner, Maufacturer, Bus, Motor, and Mission.

OBJECT E, 59777 is a satellite owned by Sitronics (CIS) in SSO that was launched on Thu, 16 May 2024 UTC via a SOYUZ-2-1B launch vehicle from the Plesetsk Missile And Space Complex (PKMTR). Unknown objects in Earth's orbit typically refer to objects detected orbiting the Earth but have not yet been identified or cataloged. These objects could be anything from previously untracked satellites, spent rocket stages, debris from satellite collisions, or even natural meteoroids temporarily captured by Earth's gravity.

Loading next visibility...
Identifier
59777, 2024-092E
Orbit
SSO
Last TLE update
14 hours ago
Origin
Manufacturer
Sputniks
Mission
Operational spacecraft
Bus & Motor
CUBESAT 3U?, Unknown motor
Mass
3 kg wet, 3 kg dry
Launch date (UTC)
2024-05-16 (1 year ago)
Launch vehicle
SOYUZ-2-1B
Launch site
Plesetsk Missile And Space Complex (PKMTR)
Object type
Unknown
Shape & HBR
Unknown
Radar Cross Section
Small (<0.1 m²)

Expand to show TLE details & history

TLE from 14 hours ago
0 OBJECT E
1 59777U 24092E   25181.84744242  .00008089  00000-0  34881-3 0  9996
2 59777  97.6241 300.3439 0008638 312.4029  47.6475 15.22794932 62043
Epoch: 2025-06-30T20:20Z
TLE epoch observation values (Epoch: 2025-06-30T20:20:19.025Z)
Latitude
-0.00004°
Longitude
76.11326°
Altitude
496.503 km
Speed
7.619 km/s
True Right ascension
20h 01m 22s
True Declination
0° 00' 00"
Sunlit
Object was in full shadow at epoch
Visualization orbit readout
Latitude
2.78526°
Longitude
76.34279°
Altitude
496.542 km
Speed
7.619 km/s
Apparent Right ascension
17h 07m 03s
Apparent Declination
-44° 45' 02"
Sunlit
Object is in full shadow
Visualization observer readout
Local Sidereal Time
22:11:07
Azimuth
226.67° WSW
Elevation
-18.671°
Doppler factor
1
Orbital elements
Apogee altitude
500.323 km
Perigee altitude
488.45 km
Semi-major axis
6,872.523 km
Eccentricity
0.00086
Inclination
97.6241°
RAAN
300.3439°
Arg. of periapsis
312.4029°
True anomaly
Unknown
Mean anomaly
47.6475°
Eccentric anomaly
Unknown
Mean motion
3.80951 °/min
Orbital period
94.5 mins
BSTAR
0.00034881
Loading maneuver chart data...
Loading SW <> Apogee altitude chart data...
Loading historical data...
Loading historical data...
Loading historical data...
Loading historical data...
Loading historical data...
Loading historical data...
Loading historical data...

OBJECT E Visibility forecast

Observer location: undefined°, undefined°

Span
Click to sort rows by Start time (UTC) header in descending order
Start Az.
Max El. time (UTC)
Max El. Az.
Max El.
End time (UTC)
End Az.
6 mins2025-07-01 20:33:39.359Z24° NE2025-07-01 20:36:39.359Z112.38° ESE39.573°2025-07-01 20:39:39.359Z178.283° S
4 mins2025-07-02 07:11:39.359Z104.944° ESE2025-07-02 07:13:39.359Z59.286° ENE20.249°2025-07-02 07:15:39.359Z22.633° NE
|